This demonstration page uses our WeatherBlox Daily Observations layout. Learn more.

Left ArrowRight Arrow

38.88101, -77.10428

Hourly Observations for May 16, 2020

Temp ( °F °C ) Dew Point ( °F °C ) Humidity (%) Winds ( mph kmh ) Pressure ( in mb ) Visibility ( mi km ) Precip ( " mm )
12:52 am 00:52 Mostly Cloudy 70 21.1 60 15.6 71 71 S 9 15 29.95 1014 10 16.0934 0 0
1:52 am 01:52 Mostly Cloudy 70 21.1 60 15.6 71 71 S 7 11 29.95 1014 10 16.0934 0 0
2:52 am 02:52 Mostly Cloudy 70 21.1 59 15 68 68 SSW 5 7 29.93 1014 10 16.0934 0 0
3:52 am 03:52 Partly Cloudy 68 20 60 15.6 76 76 S 9 15 29.93 1014 10 16.0934 0 0
4:52 am 04:52 Partly Cloudy 67 19.4 60 15.6 79 79 S 9 15 29.94 1014 10 16.0934 0 0
5:52 am 05:52 Partly Cloudy 66 18.9 59 15 78 78 S 5 7 29.96 1015 10 16.0934 0 0
6:52 am 06:52 Partly Cloudy 68 20 61 16.1 78 78 S 3 6 30 1016 10 16.0934 0 0
7:52 am 07:52 Partly Cloudy 74 23.3 60 15.6 62 62 NNW 12 19 30.02 1017 10 16.0934 0 0
8:52 am 08:52 Partly Cloudy 74 23.3 60 15.6 62 62 NNE 13 20 30.04 1017 10 16.0934 0 0
9:52 am 09:52 Mostly Cloudy 75 23.9 60 15.6 60 60 N 13 20 30.06 1018 10 16.0934 0 0
10:52 am 10:52 Mostly Cloudy 78 25.6 61 16.1 56 56 NNW 9 15 30.06 1018 10 16.0934 0 0
11:52 am 11:52 Mostly Cloudy 79 26.1 59 15 50 50 NNW 9 15 30.08 1019 10 16.0934 0 0
12:52 pm 12:52 Mostly Cloudy 81 27.2 55 12.8 41 41 NNE 12 19 30.07 1018 10 16.0934 0 0
1:52 pm 13:52 Mostly Cloudy 81 27.2 52 11.1 37 37 NNE 8 13 30.07 1018 10 16.0934 0 0
2:52 pm 14:52 Mostly Cloudy 83 28.3 52 11.1 34 34 VRB 6 9 30.06 1018 10 16.0934 0 0
3:52 pm 15:52 Mostly Cloudy 81 27.2 51 10.6 35 35 Calm 30.06 1018 10 16.0934 0 0
4:52 pm 16:52 Mostly Cloudy 81 27.2 52 11.1 37 37 E 7 11 30.06 1018 10 16.0934 0 0
5:52 pm 17:52 Mostly Cloudy 78 25.6 55 12.8 45 45 ESE 12 19 30.06 1018 10 16.0934 0 0
6:52 pm 18:52 Mostly Cloudy 77 25 53 11.7 43 43 E 9 15 30.08 1019 10 16.0934 0 0
7:52 pm 19:52 Mostly Cloudy 74 23.3 52 11.1 46 46 E 12 19 30.09 1019 10 16.0934 0 0
8:52 pm 20:52 Partly Cloudy 71 21.7 55 12.8 57 57 ENE 8 13 30.11 1020 10 16.0934 0 0
9:52 pm 21:52 Partly Cloudy 71 21.7 54 12.2 55 55 NNE 5 7 30.13 1020 10 16.0934 0 0
10:52 pm 22:52 Partly Cloudy 69 20.6 54 12.2 59 59 SSE 3 6 30.14 1021 10 16.0934 0 0
11:52 pm 23:52 Partly Cloudy 67 19.4 58 14.4 73 73 S 6 9 30.14 1021 10 16.0934 0 0

Powered by AerisWeather